This is the latest recevied weather packets stored in our database for station/object DO7VLR-5. If no packets are shown the sender has not sent any weather packets the latest 10 day(s).
| Time | Temp. | Humidity | Pressure | Rain* | Wind** | Luminosity | Snow |
|---|---|---|---|---|---|---|---|
| 1777845616 | 10° C | 80% | 1013.8 hPa | 0 mm | - | - | - |
| 1777843816 | 10.56° C | 79% | 1013.9 hPa | 0 mm | - | - | - |
| 1777842016 | 11.11° C | 76% | 1013.9 hPa | 0 mm | - | - | - |
| 1777840216 | 11.67° C | 74% | 1014 hPa | 0 mm | - | - | - |
| 1777838416 | 12.22° C | 71% | 1013.8 hPa | 0 mm | - | - | - |
| 1777836616 | 13.33° C | 67% | 1013.8 hPa | 0 mm | - | - | - |
| 1777834816 | 15° C | 60% | 1013.8 hPa | 0 mm | - | - | - |
| 1777833016 | 16.11° C | 53% | 1013.5 hPa | 0 mm | - | - | - |
| 1777831216 | 16.67° C | 52% | 1013.5 hPa | 0 mm | - | - | - |
| 1777829416 | 17.22° C | 51% | 1013.6 hPa | 0 mm | - | - | - |
| 1777827616 | 18.33° C | 48% | 1013.5 hPa | 0 mm | - | - | - |
| 1777825815 | 18.33° C | 59% | 1013.5 hPa | 0 mm | - | - | - |
| 1777824016 | 19.44° C | 55% | 1013.3 hPa | 0 mm | - | - | - |
| 1777822215 | 20.56° C | 49% | 1013.2 hPa | 0 mm | - | - | - |
| 1777820416 | 22.22° C | 36% | 1012.8 hPa | 0 mm | - | - | - |
| 1777818615 | 22.78° C | 36% | 1012.9 hPa | 0 mm | - | - | - |
| 1777816815 | 22.78° C | 38% | 1013 hPa | 0 mm | - | - | - |
| 1777815017 | 22.22° C | 35% | 1013.3 hPa | 0 mm | - | - | - |
| 1777813217 | 22.22° C | 37% | 1013.5 hPa | 0 mm | - | - | - |
| 1777811417 | 21.67° C | 36% | 1013.7 hPa | 0 mm | - | - | - |
| 1777809617 | 21.67° C | 37% | 1013.8 hPa | 0 mm | - | - | - |
| 1777807817 | 20.56° C | 36% | 1013.8 hPa | 0 mm | - | - | - |
| 1777806017 | 20° C | 41% | 1013.8 hPa | 0 mm | - | - | - |
| 1777804217 | 19.44° C | 40% | 1014.1 hPa | 0 mm | - | - | - |
| 1777802417 | 20° C | 38% | 1014.2 hPa | 0 mm | - | - | - |
* Rain latest hour (hover to see other rain measurements)
** Current wind speed in m/s (hover to see current wind gust speed)